Location: Keppel Henge
(44.7900°N, 80.9447°W)
Time: 07:04:20
(UTC-05:00)

Envisat - Pass Details

Date: 14 October 2017
Orbit: 764 x 766 km, 98.2° (Epoch: 17 December)

Event Time Altitude Azimuth Distance (km) Brightness Sun altitude
Exits shadow 22:00:15 31° 279° (W) 1,331 4.6 -35.5°
Drops below altitude 10° 22:04:09 10° 327° (NNW) 2,314 6.1 -36.1°
Sets 22:06:43 0° 338° (NNW) 3,245 6.9 -36.5°
